Home > Weather > Kleve > Past weeks

Flag for Germany Past Weather in Kleve, North Rhine-Westphalia, Germany — Yesterday and Last 2 Weeks

Now
72 °F

Partly sunny.


Feels Like: 76 °F
Forecast: 61 / 72 °F
Wind: 12 mph from West

Location: Niederrhein

Current Time: Jul 27, 2016 at 7:19:28 PM

Latest Report: Jul 27, 2016 at 6:50 PM


Visibility: N/A

Pressure: 29.98 "Hg

Humidity: 61%

Dew Point: 57 °F

Location of KleveLocation

Past Weather in Kleve — Graph

°F

Kleve Temperature Yesterday

Maximum temperature yesterday: 77 °F (at 2:50 PM)
Minimum temperature yesterday: 59 °F (at 5:50 AM)
Average temperature yesterday: 70 °F

High & Low Weather Summary for the Past Weeks

 TemperatureHumidityPressure
High95 °F (Jul 20, 4:50 PM)100% (Jul 13, 5:20 AM)30.30 "Hg (Jul 13, 5:20 AM)
Low48 °F (Jul 14, 4:50 AM)28% (Jul 20, 4:50 PM)29.83 "Hg (Jul 20, 3:50 PM)
Average70 °F70%30.08 "Hg
* Reported Jul 12 5:20 PM — Jul 27 5:50 PM, Kleve, Weather by CustomWeather, © 2016

Note: Actual official high and low records may vary slightly from our data, if they occured in-between our weather recording intervals... More about our weather records

Advertising

Kleve Weather History for the Previous 24 Hours

Scroll right to see more
 ConditionsComfort  
Time TempWeatherWind HumidityBarometerVisibility
5:50 PM
Wed, Jul 27
70 °FPartly sunny.10 mph64%30.01 "HgN/A
5:20 PM72 °FScattered showers. Partly sunny.10 mph61%30.01 "HgN/A
4:50 PM72 °FScattered showers. Scattered clouds.13 mph61%30.01 "HgN/A
4:20 PM72 °FPartly sunny.15 mph61%30.01 "HgN/A
3:50 PM72 °FScattered clouds.14 mph61%30.01 "HgN/A
3:20 PM73 °FScattered clouds.15 mph57%30.01 "HgN/A
2:50 PM73 °FScattered clouds.14 mph57%30.01 "HgN/A
2:20 PM70 °FScattered clouds.14 mph60%30.01 "HgN/A
1:50 PM72 °FScattered clouds.13 mph61%30.01 "HgN/A
1:20 PM72 °FScattered clouds.13 mph57%30.04 "HgN/A
12:50 PM72 °FPartly sunny.10 mph57%30.04 "HgN/A
12:20 PM70 °FPartly sunny.9 mph60%30.04 "HgN/A
11:50 AM70 °FScattered clouds.12 mph60%30.04 "HgN/A
11:20 AM70 °FPassing clouds.10 mph60%30.04 "HgN/A
10:50 AM68 °FPassing clouds.12 mph64%30.04 "HgN/A
10:20 AM66 °FPassing clouds.12 mph68%30.04 "HgN/A
9:50 AM66 °FSunny.12 mph68%30.04 "Hg10 mi
9:20 AM64 °FPartly sunny.9 mph78%30.04 "HgN/A
8:50 AM64 °FPartly sunny.8 mph83%30.04 "HgN/A
8:20 AM63 °FSunny.9 mph88%30.04 "Hg10 mi
7:50 AM61 °FClear.6 mph94%30.04 "Hg10 mi
7:20 AM59 °FClear.5 mph100%30.04 "Hg10 mi
6:50 AM59 °FClear.6 mph100%30.04 "Hg10 mi
6:20 AM59 °FClear.3 mph100%30.04 "Hg10 mi
5:50 AM59 °FClear.No wind100%30.04 "Hg10 mi
5:20 AM61 °FClear.2 mph100%30.04 "Hg10 mi
4:50 AM61 °FClear.3 mph94%30.04 "Hg10 mi
11:50 PM
Tue, Jul 26
66 °FClear.2 mph78%30.09 "Hg10 mi
11:20 PM68 °FSunny.No wind73%30.09 "Hg10 mi
10:50 PM68 °FSunny.No wind73%30.09 "Hg10 mi
10:20 PM70 °FSunny.No wind64%30.09 "Hg10 mi
9:50 PM70 °FSunny.2 mph64%30.09 "Hg10 mi
9:20 PM72 °FSunny.No wind61%30.09 "Hg10 mi
8:50 PM72 °FSunny.2 mph61%30.09 "Hg10 mi
8:20 PM73 °FSunny.3 mph57%30.09 "Hg10 mi
7:50 PM73 °FSunny.2 mph57%30.09 "Hg10 mi
7:20 PM73 °FSunny.3 mph57%30.09 "Hg10 mi
Weather by CustomWeather, © 2016

See weather overviewHow to use our weather pages